This is the latest recevied weather packets stored in our database for station/object KE8RXN. If no packets are shown the sender has not sent any weather packets the latest 10 day(s).
| Time | Temp. | Humidity | Pressure | Rain* | Wind** | Luminosity | Snow |
|---|---|---|---|---|---|---|---|
| 1778040973 | 6.11° C | 69% | 1013.6 hPa | 0 mm | - | 0 W/m² | - |
| 1778040669 | 6.11° C | 68% | 1013.7 hPa | 0 mm | - | 0 W/m² | - |
| 1778040367 | 6.67° C | 68% | 1013.6 hPa | 0 mm | - | 0 W/m² | - |
| 1778040063 | 6.67° C | 68% | 1013.8 hPa | 0 mm | - | 0 W/m² | - |
| 1778039760 | 6.67° C | 69% | 1013.8 hPa | 0 mm | - | 0 W/m² | - |
| 1778039456 | 6.11° C | 70% | 1013.7 hPa | 0 mm | - | 0 W/m² | - |
| 1778039154 | 6.11° C | 71% | 1013.4 hPa | 0 mm | - | 0 W/m² | - |
| 1778038851 | 6.11° C | 71% | 1013.4 hPa | 0 mm | - | 0 W/m² | - |
| 1778038548 | 5.56° C | 72% | 1013.2 hPa | 0 mm | - | 0 W/m² | - |
| 1778038245 | 5.56° C | 74% | 1013.4 hPa | 0 mm | - | 0 W/m² | - |
| 1778037942 | 5.56° C | 73% | 1013.4 hPa | 0 mm | - | 0 W/m² | - |
| 1778037639 | 5.56° C | 73% | 1013.5 hPa | 0 mm | - | 0 W/m² | - |
| 1778037337 | 6.11° C | 71% | 1013.7 hPa | 0 mm | - | 0 W/m² | - |
| 1778037033 | 6.11° C | 71% | 1013.6 hPa | 0 mm | - | 0 W/m² | - |
| 1778036732 | 6.11° C | 71% | 1013.7 hPa | 0 mm | - | 0 W/m² | - |
| 1778036429 | 6.67° C | 70% | 1013.7 hPa | 0 mm | - | 0 W/m² | - |
| 1778036126 | 6.67° C | 69% | 1013.4 hPa | 0 mm | - | 0 W/m² | - |
| 1778035821 | 6.67° C | 68% | 1013.2 hPa | 0 mm | - | 0 W/m² | - |
| 1778035519 | 6.67° C | 67% | 1013 hPa | 0 mm | - | 0 W/m² | - |
| 1778035215 | 7.22° C | 66% | 1013.2 hPa | 0 mm | - | 0 W/m² | - |
| 1778034911 | 7.22° C | 64% | 1013.3 hPa | 0 mm | - | 0 W/m² | - |
| 1778034609 | 7.22° C | 63% | 1013 hPa | 0 mm | - | 0 W/m² | - |
| 1778034306 | 7.22° C | 64% | 1013 hPa | 0 mm | - | 0 W/m² | - |
| 1778034003 | 7.78° C | 62% | 1013 hPa | 0 mm | - | 0 W/m² | - |
| 1778033701 | 7.78° C | 61% | 1012.9 hPa | 0 mm | - | 0 W/m² | - |
* Rain latest hour (hover to see other rain measurements)
** Current wind speed in m/s (hover to see current wind gust speed)